Home > Weather > Augusta > Past weeks

Flag for USA Past Weather in Augusta, Maine, USA — Yesterday and Last 2 Weeks

Now
72 °F

Passing clouds.


Feels Like: 72 °F
Forecast: 68 / 84 °F
Wind: 9 mph from Northwest

Location: Augusta State Airport

Current Time: Jul 23, 2016 at 5:18:08 PM

Latest Report: Jul 23, 2016 at 4:53 PM


Visibility: 10 mi

Pressure: 29.74 "Hg

Humidity: 81%

Dew Point: 66 °F

Location of AugustaLocation

Past Weather in Augusta — Graph

°F

Augusta Temperature Yesterday

Maximum temperature yesterday: 91 °F (at 3:53 PM)
Minimum temperature yesterday: 63 °F (at 4:53 AM)
Average temperature yesterday: 77 °F

High & Low Weather Summary for the Past Weeks

 TemperatureHumidityPressure
High91 °F (Jul 22, 3:53 PM)100% (Jul 9, 9:53 AM)30.15 "Hg (Jul 9, 9:53 AM)
Low54 °F (Jul 9, 10:53 PM)33% (Jul 20, 12:53 PM)29.65 "Hg (Jul 22, 4:53 PM)
Average70 °F72%29.95 "Hg
* Reported Jul 8 3:53 PM — Jul 23 3:53 PM, Augusta, Weather by CustomWeather, © 2016

Note: Actual official high and low records may vary slightly from our data, if they occured in-between our weather recording intervals... More about our weather records

Advertising

Augusta Weather History for the Previous 24 Hours

Scroll right to see more
 ConditionsComfort  
Time TempWeatherWind HumidityBarometerVisibility
3:53 PM
Sat, Jul 23
79 °FPassing clouds.8 mph58%29.72 "Hg10 mi
2:53 PM83 °FSunny.9 mph51%29.72 "Hg10 mi
1:53 PM82 °FScattered clouds.9 mph51%29.72 "Hg10 mi
12:53 PM82 °FPassing clouds.8 mph49%29.73 "Hg10 mi
11:53 AM81 °FPassing clouds.13 mph53%29.74 "Hg10 mi
10:53 AM81 °FSunny.12 mph54%29.73 "Hg10 mi
9:53 AM79 °FSunny.7 mph60%29.72 "Hg10 mi
8:53 AM75 °FSunny.8 mph66%29.74 "Hg10 mi
7:53 AM73 °FSunny.8 mph74%29.72 "Hg10 mi
6:53 AM69 °FSunny.3 mph87%29.72 "Hg10 mi
5:53 AM66 °FClear.6 mph96%29.71 "Hg10 mi
4:53 AM67 °FLight rain. Mostly cloudy.9 mph93%29.72 "Hg10 mi
3:53 AM68 °FPassing clouds.8 mph93%29.68 "Hg10 mi
2:53 AM70 °FRain. Overcast.8 mph84%29.72 "Hg6 mi
1:53 AM74 °FLight rain. Passing clouds.3 mph74%29.70 "Hg10 mi
12:53 AM74 °FPassing clouds.No wind69%29.70 "Hg10 mi
11:53 PM
Fri, Jul 22
74 °FPassing clouds.3 mph69%29.70 "Hg10 mi
10:53 PM77 °FPassing clouds.3 mph60%29.70 "Hg10 mi
9:53 PM82 °FClear.5 mph51%29.70 "Hg10 mi
8:53 PM81 °FSunny.3 mph56%29.69 "Hg10 mi
7:53 PM85 °FSunny.3 mph46%29.67 "Hg10 mi
6:53 PM88 °FSunny.7 mph40%29.66 "Hg10 mi
5:53 PM90 °FSunny.10 mph35%29.65 "Hg10 mi
Weather by CustomWeather, © 2016

See weather overviewHow to use our weather pages